Latest Weather Observations for Dennes Point

IDT60801

Issued at 8:02 am EST Friday 29 July 2016 (issued every 30 minutes, with the page automatically refreshed every 10 minutes)

About weather observations | Map of weather stations | Latest weather observations for TAS | Other Formats
Station Details ID: 094255 Name: DENNES POINT Lat: -43.06 Lon: 147.36 Height: 5.67 m
Data from the previous 72 hours. | See also: Recent months at Dennes Point
Date/Time
EST
Temp
°C
App
Temp
°C
Dew
Point
°C
Rel
Hum
%
Delta-T
°C
Wind Press
QNH
hPa
Press
MSL
hPa
Rain since
9am
mm
Dir  Spd
km/h
Gust
km/h
Spd
kts
Gust
kts
29/08:00am 11.0 8.4 6.2 72 2.2 W 9 15 5 8 1006.7 1006.7 0.0
29/07:30am 11.2 7.0 5.9 70 2.5 N 17 20 9 11 1006.7 1006.7 0.0
29/07:00am 11.2 8.0 5.3 67 2.7 NW 11 15 6 8 1006.7 1006.7 0.0
29/06:30am 11.4 7.9 5.3 66 2.8 NW 13 22 7 12 1006.7 1006.7 0.0
29/06:00am 11.3 8.2 5.6 68 2.6 NNW 11 22 6 12 1006.7 1006.7 0.0
29/05:30am 11.5 8.0 5.6 67 2.7 NNW 13 22 7 12 1006.5 1006.5 0.0
29/05:00am 11.4 7.1 5.1 65 2.9 NW 17 28 9 15 1007.0 1007.0 0.0
29/04:30am 11.5 7.9 5.2 65 2.9 NNW 13 19 7 10 1006.9 1006.9 0.0
29/04:00am 11.2 6.9 5.1 66 2.8 WNW 17 24 9 13 1007.1 1007.1 0.0
29/03:30am 11.3 6.4 5.0 65 2.9 NW 20 28 11 15 1007.5 1007.5 0.0
29/03:00am 11.3 4.0 4.7 64 3.0 WNW 32 43 17 23 1007.5 1007.5 0.0
29/02:30am 11.3 7.6 4.5 63 3.1 NW 13 26 7 14 1007.8 1007.8 0.0
29/02:00am 11.3 7.5 4.1 61 3.2 WNW 13 20 7 11 1008.1 1008.1 0.0
29/01:30am 11.2 7.1 4.2 62 3.1 WNW 15 26 8 14 1008.3 1008.3 0.0
29/01:00am 11.3 7.3 4.7 64 3.0 NW 15 20 8 11 1008.5 1008.5 0.0
29/12:30am 11.0 7.3 4.7 65 2.8 NW 13 20 7 11 1008.8 1008.8 0.0
29/12:00am 11.1 8.5 4.3 63 3.1 NW 7 13 4 7 1009.1 1009.1 0.0
 
Date/Time
EST
Temp
°C
App
Temp
°C
Dew
Point
°C
Rel
Hum
%
Delta-T
°C
Wind Press
QNH
hPa
Press
MSL
hPa
Rain since
9am
mm
Dir  Spd
km/h
Gust
km/h
Spd
kts
Gust
kts
28/11:30pm 10.8 7.1 4.3 64 2.9 WNW 13 20 7 11 1009.3 1009.3 0.0
28/11:00pm 11.2 6.6 3.7 60 3.3 NW 17 24 9 13 1009.4 1009.4 0.0
28/10:30pm 11.2 8.2 4.2 62 3.1 NNW 9 13 5 7 1009.8 1009.8 0.0
28/10:00pm 11.1 6.0 4.1 62 3.1 W 20 32 11 17 1009.7 1009.7 0.0
28/09:30pm 10.9 6.8 4.6 65 2.8 W 15 24 8 13 1010.0 1010.0 0.0
28/09:00pm 11.0 6.7 5.1 67 2.7 W 17 28 9 15 1010.0 1010.0 0.0
28/08:30pm 11.2 4.7 4.9 65 2.9 W 28 39 15 21 1010.1 1010.1 0.0
28/08:00pm 11.4 5.6 4.6 63 3.1 W 24 32 13 17 1010.0 1010.0 0.0
28/07:30pm 11.3 4.4 4.7 64 3.0 W 30 44 16 24 1010.0 1010.0 0.0
28/07:00pm 11.6 6.5 4.1 60 3.4 W 20 28 11 15 1010.2 1010.2 0.0
28/06:30pm 11.6 7.7 3.4 57 3.6 NW 13 22 7 12 1009.7 1009.7 0.0
28/06:00pm 11.7 7.9 4.0 59 3.5 NNW 13 20 7 11 1009.8 1009.8 0.0
28/05:30pm 12.1 9.4 3.6 56 3.8 W 7 11 4 6 1009.6 1009.6 0.0
28/05:00pm 12.1 10.0 4.1 58 3.6 N 4 13 2 7 1009.1 1009.1 0.0
28/04:30pm 12.5 9.1 4.2 57 3.8 WNW 11 22 6 12 1008.5 1008.5 0.0
28/04:00pm 12.2 5.4 5.1 62 3.3 W 30 41 16 22 1007.9 1007.9 0.0
28/03:30pm 12.7 5.9 5.1 60 3.5 W 30 43 16 23 1007.7 1007.7 0.0
28/03:28pm 12.8 6.4 5.2 60 3.5 W 28 43 15 23 1007.6 1007.6 0.0
28/03:00pm 13.8 10.7 5.4 57 4.0 WNW 11 20 6 11 1007.7 1007.7 0.0
28/02:30pm 14.3 11.3 5.9 57 4.0 W 11 22 6 12 1007.0 1007.0 0.0
28/02:00pm 14.0 9.8 5.6 57 4.0 WNW 17 33 9 18 1006.6 1006.6 0.0
28/01:30pm 13.4 7.9 5.8 60 3.6 W 24 44 13 24 1006.5 1006.5 0.0
28/01:00pm 13.3 6.1 5.7 60 3.6 W 33 54 18 29 1006.1 1006.1 0.0
28/12:44pm 13.4 4.0 5.6 59 3.7 WSW 44 65 24 35 1005.5 1005.5 0.0
28/12:30pm 13.5 5.5 5.9 60 3.6 WSW 37 52 20 28 1005.8 1005.8 0.0
28/12:11pm 13.6 5.8 6.5 62 3.4 W 37 61 20 33 1005.8 1005.8 0.0
28/12:00pm 13.6 6.1 6.5 62 3.4 WSW 35 48 19 26 1006.0 1006.0 0.0
28/11:35am 13.6 6.2 6.7 63 3.3 WSW 35 54 19 29 1006.3 1006.3 0.0
28/11:30am 13.5 5.7 6.6 63 3.3 WSW 37 54 20 29 1006.2 1006.2 0.0
28/11:07am 13.5 4.6 6.8 64 3.2 WSW 43 63 23 34 1006.4 1006.4 0.0
28/11:00am 13.3 3.0 6.4 63 3.3 W 50 69 27 37 1006.3 1006.3 0.0
28/10:30am 13.2 3.3 6.5 64 3.2 W 48 67 26 36 1006.0 1006.0 0.0
28/10:01am 12.9 3.0 6.7 66 3.0 W 48 67 26 36 1005.5 1005.5 0.0
28/10:00am 12.9 3.0 6.7 66 3.0 W 48 65 26 35 1005.5 1005.5 0.0
28/09:31am 12.6 2.8 6.9 68 2.7 W 48 74 26 40 1005.3 1005.3 0.0
28/09:30am 12.5 3.1 7.0 69 2.6 W 46 61 25 33 1005.5 1005.5 0.0
28/09:03am 12.1 2.2 6.8 70 2.5 WSW 48 70 26 38 1005.3 1005.3 0.0
28/09:00am 12.0 2.5 6.9 71 2.4 WSW 46 59 25 32 1005.4 1005.4 2.2
28/08:37am 11.6 3.5 6.9 73 2.2 WSW 39 59 21 32 1005.6 1005.6 2.2
28/08:30am 11.4 3.2 6.7 73 2.2 WSW 39 48 21 26 1005.7 1005.7 2.2
28/08:00am 11.1 2.5 6.5 73 2.2 W 41 61 22 33 1005.1 1005.1 2.2
28/07:35am 11.2 5.0 6.1 71 2.4 WNW 28 48 15 26 1005.2 1005.2 2.2
28/07:30am 11.1 4.9 6.0 71 2.4 WNW 28 44 15 24 1005.0 1005.0 2.2
28/07:00am 10.7 6.1 5.5 70 2.4 NW 19 43 10 23 1005.7 1005.7 2.2
28/06:30am 10.6 2.9 5.4 70 2.4 W 35 50 19 27 1005.2 1005.2 2.2
28/06:00am 10.7 2.5 5.0 68 2.6 WSW 37 52 20 28 1004.9 1004.9 2.2
28/05:30am 10.9 3.1 4.8 66 2.8 W 35 50 19 27 1005.4 1005.4 2.2
28/05:00am 10.8 3.0 4.7 66 2.8 WSW 35 46 19 25 1005.5 1005.5 2.2
28/04:46am 10.7 2.1 4.8 67 2.7 WSW 39 57 21 31 1005.2 1005.2 2.2
28/04:30am 10.7 1.7 4.8 67 2.7 WSW 41 56 22 30 1005.7 1005.7 2.2
28/04:00am 10.4 2.6 5.0 69 2.5 WSW 35 48 19 26 1006.1 1006.1 2.2
28/03:30am 9.9 3.5 5.3 73 2.1 WSW 28 41 15 22 1006.6 1006.6 2.2
28/03:00am 10.2 1.3 5.0 70 2.4 W 41 54 22 29 1007.0 1007.0 2.2
28/02:30am 10.1 2.3 4.7 69 2.4 W 35 46 19 25 1007.4 1007.4 2.2
28/02:00am 10.5 4.4 4.6 67 2.7 WSW 26 33 14 18 1006.7 1006.7 2.2
28/01:30am 10.8 3.0 4.7 66 2.8 W 35 44 19 24 1006.5 1006.5 2.2
28/01:00am 9.9 3.4 4.7 70 2.3 WSW 28 43 15 23 1006.2 1006.2 2.2
28/12:43am 10.5 3.0 4.2 65 2.8 W 33 52 18 28 1006.0 1006.0 2.2
28/12:30am 10.5 3.5 4.2 65 2.8 W 30 37 16 20 1005.7 1005.7 2.2
28/12:00am 10.4 2.8 3.9 64 2.9 W 33 54 18 29 1005.3 1005.3 2.2
 
Date/Time
EST
Temp
°C
App
Temp
°C
Dew
Point
°C
Rel
Hum
%
Delta-T
°C
Wind Press
QNH
hPa
Press
MSL
hPa
Rain since
9am
mm
Dir  Spd
km/h
Gust
km/h
Spd
kts
Gust
kts
27/11:52pm 10.5 1.8 4.0 64 2.9 W 39 57 21 31 1005.3 1005.3 2.2
27/11:30pm 10.4 2.9 3.7 63 2.9 WSW 32 44 17 24 1005.3 1005.3 2.2
27/11:00pm 10.5 2.4 3.3 61 3.2 WSW 35 48 19 26 1004.7 1004.7 2.2
27/10:30pm 10.2 2.3 4.1 66 2.7 WSW 35 46 19 25 1004.6 1004.6 2.2
27/10:00pm 10.4 1.0 4.3 66 2.7 W 43 61 23 33 1004.1 1004.1 2.2
27/09:30pm 10.4 1.4 4.8 68 2.5 W 41 52 22 28 1003.8 1003.8 2.2
27/09:00pm 10.4 1.4 4.3 66 2.7 WSW 41 52 22 28 1003.4 1003.4 2.2
27/08:30pm 10.0 2.2 5.0 71 2.3 WSW 35 44 19 24 1002.6 1002.6 2.2
27/08:00pm 9.8 2.8 5.8 76 1.8 WSW 32 41 17 22 1002.1 1002.1 2.0
27/07:30pm 9.7 2.7 5.9 77 1.7 WSW 32 43 17 23 1001.8 1001.9 1.8
27/07:00pm 9.3 2.1 5.7 78 1.6 WSW 33 54 18 29 1001.1 1001.2 1.4
27/06:56pm 9.2 1.9 5.4 77 1.7 WSW 33 54 18 29 1001.0 1001.1 1.2
27/06:30pm 8.7 1.2 4.7 76 1.8 WNW 33 46 18 25 999.6 999.7 0.8
27/06:00pm 7.6 1.6 3.6 76 1.7 W 24 33 13 18 1000.5 1000.6 0.4
27/05:30pm 8.6 -1.9 3.4 70 2.2 WNW 48 69 26 37 999.6 999.7 0.0
27/05:04pm 8.8 -2.7 2.4 64 2.7 WNW 52 72 28 39 999.5 999.6 0.0
27/05:00pm 9.0 -3.3 2.3 63 2.8 WNW 56 72 30 39 999.4 999.5 0.0
27/04:47pm 9.0 -1.7 2.3 63 2.8 WNW 48 74 26 40 999.7 999.8 0.0
27/04:30pm 8.6 1.2 2.0 63 2.7 WNW 30 50 16 27 1000.1 1000.2 0.0
27/04:23pm 9.0 -0.5 1.7 60 3.0 WNW 41 63 22 34 1000.5 1000.6 0.0
27/04:21pm 9.3 -0.8 1.7 59 3.2 WNW 44 63 24 34 1000.5 1000.6 0.0
27/04:05pm 9.3 2.6 1.2 57 3.3 WNW 26 52 14 28 1001.0 1001.1 0.0
27/04:00pm 9.3 3.9 1.2 57 3.3 W 19 52 10 28 1001.1 1001.2 0.0
27/03:30pm 10.1 7.1 0.7 52 3.8 NW 6 11 3 6 1001.1 1001.2 0.0
27/03:00pm 9.8 5.5 1.2 55 3.6 WNW 13 20 7 11 1001.8 1001.9 0.0
27/02:30pm 9.2 1.2 1.6 59 3.1 W 33 52 18 28 1002.4 1002.4 0.0
27/02:24pm 9.1 1.6 1.3 58 3.2 W 30 52 16 28 1002.3 1002.3 0.0
27/02:00pm 8.7 3.1 1.1 59 3.1 W 20 30 11 16 1002.5 1002.5 0.0
27/01:30pm 8.7 3.6 0.9 58 3.2 WNW 17 28 9 15 1002.7 1002.7 0.0
27/01:00pm 8.7 1.2 0.9 58 3.2 W 30 41 16 22 1003.1 1003.1 0.0
27/12:30pm 8.9 1.5 1.8 61 2.9 W 30 46 16 25 1003.2 1003.2 0.0
27/12:29pm 8.8 1.8 1.7 61 2.9 W 28 46 15 25 1003.2 1003.2 0.0
27/12:00pm 8.4 1.0 1.8 63 2.7 WSW 30 41 16 22 1003.1 1003.1 0.0
27/11:30am 8.1 1.2 2.4 67 2.4 WSW 28 37 15 20 1003.4 1003.4 0.0
27/11:00am 8.0 0.2 1.6 64 2.6 WSW 32 39 17 21 1003.6 1003.6 0.0
27/10:30am 7.9 0.2 2.2 67 2.4 WSW 32 41 17 22 1003.5 1003.5 0.0
27/10:00am 7.4 -0.4 1.9 68 2.3 WSW 32 39 17 21 1003.7 1003.7 0.0
27/09:30am 7.0 1.4 1.5 68 2.2 W 20 30 11 16 1003.6 1003.6 0.0
27/09:00am 6.8 -0.3 1.3 68 2.2 W 28 33 15 18 1003.2 1003.2 1.2
27/08:30am 6.3 -2.1 1.8 73 1.8 W 35 43 19 23 1002.8 1002.8 1.2
27/08:00am 5.9 -1.2 1.2 72 1.9 W 28 35 15 19 1002.3 1002.3 1.2
27/07:30am 5.9 -1.2 1.2 72 1.9 W 28 33 15 18 1001.8 1001.9 1.2
27/07:00am 5.8 -0.5 1.3 73 1.8 WNW 24 30 13 16 1001.1 1001.2 1.2
27/06:30am 5.8 0.4 1.3 73 1.8 W 19 26 10 14 1000.6 1000.7 1.0
27/06:00am 5.8 -0.4 2.1 77 1.5 W 24 32 13 17 999.9 1000.0 1.0
27/05:30am 4.9 -2.5 1.7 80 1.3 WSW 30 35 16 19 999.4 999.5 0.8
27/05:15am 6.0 -1.0 2.1 76 1.6 SW 28 50 15 27 999.5 999.6 0.8
27/05:00am 5.8 0.9 2.3 78 1.4 SW 17 28 9 15 999.1 999.2 0.8
27/04:30am 5.6 0.2 2.3 79 1.3 SW 20 30 11 16 998.4 998.5 0.8
27/04:00am 5.9 1.5 2.7 80 1.3 SW 15 22 8 12 997.8 997.9 0.8
27/03:30am 5.5 1.0 2.2 79 1.3 SSW 15 20 8 11 997.0 997.1 0.6
27/03:00am 6.1 -1.2 2.4 77 1.5 WSW 30 39 16 21 996.3 996.4 0.6
27/02:30am 7.3 -0.4 3.2 75 1.7 WSW 33 44 18 24 995.4 995.5 0.4
27/02:00am 8.3 2.2 3.0 69 2.3 W 24 35 13 19 994.4 994.5 0.2
27/01:30am 8.9 6.0 2.7 65 2.6 NNW 7 17 4 9 993.3 993.3 0.2
27/01:00am 8.9 4.8 2.3 63 2.8 W 13 41 7 22 992.9 992.9 0.2
27/12:30am 9.5 5.4 2.1 60 3.1 N 13 30 7 16 993.1 993.1 0.2
27/12:00am 9.3 5.9 1.9 60 3.1 NNW 9 20 5 11 993.1 993.1 0.2
 
Date/Time
EST
Temp
°C
App
Temp
°C
Dew
Point
°C
Rel
Hum
%
Delta-T
°C
Wind Press
QNH
hPa
Press
MSL
hPa
Rain since
9am
mm
Dir  Spd
km/h
Gust
km/h
Spd
kts
Gust
kts
26/11:31pm 9.0 2.3 3.6 69 2.3 NNE 28 48 15 26 993.3 993.3 0.2
26/11:30pm 9.0 2.3 3.6 69 2.3 NNE 28 37 15 20 993.3 993.3 0.2
26/11:00pm 8.5 2.0 2.9 68 2.4 NNE 26 37 14 20 994.2 994.2 0.2
26/10:30pm 8.2 3.1 2.9 69 2.2 N 19 32 10 17 994.6 994.7 0.2
26/10:00pm 7.7 2.9 2.6 70 2.1 NW 17 30 9 16 995.2 995.3 0.2
26/09:30pm 8.2 3.5 2.9 69 2.2 N 17 28 9 15 995.9 996.0 0.2
26/09:00pm 7.5 3.0 2.2 69 2.2 NW 15 24 8 13 996.5 996.6 0.2
26/08:30pm 7.4 3.0 2.5 71 2.0 NNW 15 24 8 13 997.1 997.2 0.2
26/08:00pm 7.2 2.3 2.3 71 2.0 NW 17 26 9 14 997.6 997.7 0.2
26/07:30pm 7.4 2.7 2.9 73 1.9 NNW 17 19 9 10 997.9 998.0 0.2
26/07:00pm 7.3 4.5 2.0 69 2.2 N 6 7 3 4 998.4 998.5 0.2
26/06:30pm 7.3 4.0 2.2 70 2.1 NW 9 13 5 7 998.7 998.8 0.2
26/06:00pm 7.3 2.0 1.8 68 2.3 NW 19 24 10 13 998.9 999.0 0.2
26/05:30pm 7.2 1.7 2.1 70 2.1 NW 20 26 11 14 998.9 999.0 0.2
26/05:00pm 7.2 3.8 1.9 69 2.2 WNW 9 20 5 11 999.1 999.2 0.2
26/04:30pm 7.2 3.5 2.1 70 2.1 WSW 11 17 6 9 999.3 999.4 0.2
26/04:00pm 8.1 4.1 2.8 69 2.2 WNW 13 19 7 10 999.0 999.1 0.2
26/03:30pm 8.6 2.4 2.2 64 2.7 WNW 24 37 13 20 998.6 998.7 0.2
26/03:00pm 8.9 4.5 2.7 65 2.6 W 15 24 8 13 998.2 998.3 0.2
26/02:30pm 8.5 5.7 2.3 65 2.6 WSW 6 13 3 7 998.2 998.3 0.2
26/02:00pm 8.5 5.5 2.3 65 2.6 SE 7 17 4 9 998.0 998.1 0.2
26/01:30pm 8.0 5.1 2.5 68 2.3 W 7 13 4 7 997.7 997.8 0.2
26/01:00pm 8.0 2.9 3.1 71 2.1 W 19 35 10 19 997.6 997.7 0.2
26/12:51pm 8.1 0.9 3.2 71 2.1 W 30 48 16 26 997.5 997.6 0.2
26/12:30pm 8.7 1.0 3.3 69 2.3 W 33 46 18 25 997.3 997.4 0.2
26/12:00pm 8.3 -0.6 3.2 70 2.2 W 39 56 21 30 996.9 997.0 0.2
26/11:35am 8.4 -0.1 3.1 69 2.3 W 37 57 20 31 996.9 997.0 0.2
26/11:30am 8.3 -1.4 2.8 68 2.3 W 43 57 23 31 997.0 997.1 0.2
26/11:02am 8.5 0.6 2.5 66 2.5 W 33 52 18 28 997.2 997.3 0.2
26/11:00am 8.6 0.8 2.6 66 2.5 W 33 46 18 25 997.2 997.3 0.2
26/10:30am 7.8 -0.4 2.9 71 2.1 W 35 46 19 25 996.9 997.0 0.2
26/10:00am 6.5 -1.2 2.4 75 1.7 WNW 32 41 17 22 997.1 997.2 0.2
26/09:30am 6.3 -1.5 2.6 77 1.5 WNW 33 44 18 24 997.0 997.1 0.2
26/09:00am 6.0 0.6 2.3 77 1.5 NW 20 28 11 15 996.4 996.5 5.2
26/08:30am 5.1 -0.9 1.2 76 1.5 WNW 22 33 12 18 996.4 996.5 5.0

Other Formats:

Comma delimited format used in spreadsheet applications
http://www.bom.gov.au/fwo/IDT60801/IDT60801.94988.axf

JavaScript Object Notation format (JSON) in row-major order
http://www.bom.gov.au/fwo/IDT60801/IDT60801.94988.json